Location: Cârne?ti
(45.5500°N, 22.8667°E)
Time: 15:51:37
(UTC+00:00)

Daily predictions for brighter satellites

Satellite Brightness Start Highest point End
(mag) Time Altitude Azimuth Time Altitude Azimuth Time Altitude Azimuth
Okean 3 3.8 18:52:23 10° SSE 18:56:20 44° E 19:00:20 10° NNE
Cosmos 1758 3.4 18:54:28 10° N 18:58:25 84° W 19:02:22 10° S
Okean-O 2.7 18:54:48 10° SSE 18:59:12 89° WSW 19:03:39 10° NNW
ATLAS CENTAUR R/B 4.3 18:57:50 10° W 19:00:25 19° NW 19:03:05 10° N
Cosmos 2266 Rocket 4.4 18:54:24 10° SSW 19:00:46 74° W 19:07:13 10° N
GENESIS II 4.3 18:58:12 10° SW 19:01:49 72° NW 19:05:28 10° NNE
Cosmos 1862 Rocket 3.6 18:58:19 10° S 19:02:41 66° E 19:07:07 10° NNE
CZ-4C R/B 2.7 19:00:12 10° S 19:03:51 27° ESE 19:08:12 10° NE
Cosmos 1356 Rocket 3.6 19:00:05 10° SSW 19:04:17 78° W 19:08:30 10° N
S3M 4.5 18:58:21 10° NNW 19:04:38 67° W 19:10:47 10° S
Cosmos 839 Rocket 4.1 18:58:26 10° NW 19:05:15 90° NE 19:11:23 10° SSE
Okean O Rocket 2.8 19:01:47 10° S 19:05:54 40° W 19:10:01 10° NNW
USA 245 4.3 19:03:34 10° SE 19:07:47 48° ENE 19:12:56 10° N
Meteor 2-10 Rocket 4.0 19:02:33 10° NNW 19:07:54 63° W 19:13:00 10° S
MOS 1 4.4 19:02:29 10° SSE 19:08:07 85° WSW 19:13:49 10° NNW
Ariane Rocket 3.8 19:04:44 10° SE 19:09:24 38° ENE 19:14:06 10° N
MetOp-B 4.2 19:04:48 10° SSE 19:10:09 83° ENE 19:15:33 10° NNW
CZ-4 R/B 4.2 19:09:49 10° WSW 19:11:49 13° W 19:13:49 10° WNW
Cosmos 2228 Rocket 3.4 19:07:29 10° SSW 19:12:02 75° W 19:16:38 10° N
BREEZE-M DEB (TANK) 4.3 19:04:36 10° W 19:13:51 45° NNW 19:16:51 10° NE
Cosmos 968 Rocket 4.3 19:09:00 10° SW 19:14:05 57° WNW 19:19:13 10° NNE
Terra 2.2 19:11:24 10° SE 19:15:56 51° ENE 19:20:31 10° N
Cosmos 807 4.0 19:13:26 10° S 19:16:24 87° WNW 19:19:18 10° N
Meteor 1-4 Rocket 2.0 19:15:15 10° S 19:18:14 84° E 19:21:15 10° NNE
Cosmos 1242 Rocket 3.0 19:16:10 11° SSE 19:18:16 24° E 19:20:33 10° NE
MOS 1 Rocket 3.9 19:15:45 10° SE 19:20:51 51° ENE 19:25:47 10° N
USA 234 4.1 19:16:14 10° ENE 19:21:37 27° SE 19:26:56 10° S
Cosmos 2360 Rocket 3.5 19:16:29 10° NW 19:21:39 37° WSW 19:26:46 10° S
Cosmos 1707 Rocket 4.0 19:17:23 10° SSW 19:21:48 66° W 19:26:12 10° N
COSMOS 2428 2.9 19:20:03 10° NNW 19:25:44 63° ENE 19:30:54 12° SE
ARGOS Delta rocket 4.1 19:22:06 10° S 19:26:25 62° W 19:30:48 10° NNW
SPOT 5 3.1 19:26:42 10° S 19:31:00 60° W 19:35:31 10° NNW
Cosmos 1953 2.4 19:27:21 10° N 19:31:06 56° ENE 19:34:18 14° SSE
IRS-1C Rocket 4.3 19:28:15 10° S 19:33:30 75° WSW 19:38:47 10° NNW
Cosmos 1733 Rocket 4.0 19:31:56 10° NNW 19:36:11 46° W 19:40:25 10° SSW
Meteor 2-20 Rocket 4.4 19:38:41 10° N 19:44:49 89° W 19:50:31 11° S
ERS-1 Rocket 3.2 19:41:29 10° S 19:46:29 72° WSW 19:51:31 10° NNW
BlueWalker 3 3.7 19:43:25 10° W 19:46:52 34° NNW 19:50:20 10° NE
SL-08 R/B 4.5 19:41:13 10° S 19:47:14 68° E 19:53:18 10° NNE
Cosmos 1315 Rocket 3.3 19:47:35 10° SSW 19:51:31 61° WNW 19:55:30 10° N
SL-4 R/B 2.3 19:51:23 10° WNW 19:55:07 49° SW 19:57:36 21° SSE
Cosmos 2084 Rocket 3.4 19:52:21 10° SSW 19:56:37 60° SE 20:00:44 10° NE
EXPRESS MD2 3.4 19:54:53 10° WNW 19:57:22 37° N 19:59:02 14° E
Cosmos 1908 Rocket 3.5 19:54:55 10° N 19:59:15 82° W 20:02:37 16° S
Cosmos 1408 2.9 20:00:53 26° SE 20:01:48 32° E 20:04:32 10° NNE
SL-16 R/B 4.1 19:58:51 10° N 20:03:01 20° NE 20:07:10 10° E
Cosmos 1782 Rocket 3.7 19:59:04 10° N 20:03:21 57° ENE 20:06:02 22° SSE
Cosmos 1570 Rocket 4.4 19:58:14 10° NNW 20:03:33 63° WSW 20:07:46 16° S
Cosmos 2237 Rocket 2.6 19:58:57 10° NNW 20:04:30 52° ENE 20:08:28 19° SE
Cosmos 2333 Rocket 4.4 20:02:25 10° WNW 20:06:13 18° W 20:10:00 10° SW
Cosmos 1300 Rocket 3.8 20:02:52 10° N 20:07:06 51° ENE 20:09:35 23° SE
Cosmos 2227 Rocket 3.2 20:06:01 19° SE 20:08:41 28° ESE 20:13:25 10° NE
SL-23 DEB 4.3 20:13:51 10° SW 20:17:22 49° SE 20:22:54 10° ENE
NOSS 0 Rocket 4.0 20:12:22 10° NNW 20:18:38 79° WSW 20:22:55 21° SSE
Cosmos 1980 3.8 20:13:33 10° NNW 20:19:15 71° ENE 20:22:53 23° SE
SJ 16-02 4.2 20:16:54 10° W 20:19:43 17° NW 20:22:33 10° NNW
Meteor 2-5 Rocket 4.4 20:16:54 21° SSE 20:20:11 39° E 20:25:31 10° NNE
Landsat 4 4.3 20:19:39 20° SSW 20:21:43 43° W 20:25:00 10° NNW
Spot 2 Rocket 4.3 20:18:30 13° S 20:22:46 45° W 20:27:40 10° NNW
COSMOS 2455 3.1 20:17:15 10° SW 20:23:16 72° NW 20:29:19 10° NNE
Cosmos 1777 Rocket 4.2 20:20:52 20° S 20:24:22 53° ESE 20:29:30 10° NNE
Cosmos 1455 3.6 20:23:08 10° NNW 20:26:14 30° W 20:28:44 14° SSW
GP-B 3.1 20:22:43 10° N 20:27:08 70° E 20:29:30 27° S
Cosmos 2297 Rocket 2.1 20:21:42 10° SSW 20:27:18 74° ESE 20:32:57 10° NNE
SeaSat 1 2.6 20:24:21 23° SSE 20:27:21 69° WSW 20:32:17 10° NNW
ARIANE 5 R/B 3.6 20:26:17 21° ESE 20:28:24 33° ENE 20:32:20 10° N
Landsat 5 3.5 20:24:39 10° NNE 20:28:51 87° W 20:31:54 19° SSW
Cosmos 1174 3.9 20:25:09 10° NNW 20:29:53 78° NE 20:31:42 31° SE
SPOT 3 Rocket 4.3 20:27:21 15° SSW 20:31:20 45° W 20:36:19 10° NNW
Cosmos 1825 4.1 20:33:14 14° E 20:33:16 14° E 20:35:07 10° NE
Cosmos 2219 Rocket 4.3 20:30:53 10° WNW 20:34:42 19° W 20:38:31 10° SW
MetOp-A 4.1 20:31:43 24° S 20:35:00 81° WSW 20:40:10 10° NNW
Cosmos 1503 Rocket 3.9 20:31:32 16° SSW 20:35:54 80° ESE 20:41:12 10° NNE
Cosmos 1703 3.2 20:36:08 37° SSE 20:37:20 57° E 20:40:57 10° NNE
CENTAUR R/B 2.6 20:35:25 21° S 20:39:00 49° ESE 20:45:28 10° NE
BREEZE-M R/B 4.3 20:42:22 23° SE 20:42:24 23° SE 20:47:44 10° ENE
Cosmos 2219 4.2 20:42:06 25° SE 20:43:43 29° ESE 20:48:28 10° NE
Cosmos 1745 Rocket 4.2 20:38:43 14° SSW 20:44:13 75° W 20:50:36 10° N
Cosmos 2263 Rocket 3.5 20:45:28 20° ESE 20:46:33 22° E 20:50:42 10° NE
Cosmos 371 Rocket 3.9 20:43:14 10° SW 20:47:57 56° WNW 20:52:43 10° NNE
Ariane Rocket 4.5 20:44:24 12° SSW 20:48:23 29° W 20:52:49 10° NW
Nadezhda 1 Rocket 4.3 20:42:39 10° NNW 20:48:47 61° W 20:53:01 20° SSW
Cosmos 1461 4.4 20:51:06 19° E 20:51:06 19° E 20:53:08 10° ENE
CZ-4C R/B 3.1 20:47:25 10° WSW 20:51:50 45° NW 20:57:21 10° NNE
Meteor 1-24 Rocket 3.7 20:50:34 27° S 20:53:46 73° E 20:59:16 10° NNE
Terra 3.9 20:50:28 10° SW 20:53:49 19° W 20:57:11 10° NW
Cosmos 2151 Rocket 4.2 20:50:49 10° N 20:54:59 42° ENE 20:56:29 31° ESE
Cosmos 1892 3.5 20:57:22 30° E 20:57:32 31° E 21:00:41 10° NNE
Okean 2 Rocket 3.8 20:55:10 10° N 20:59:28 43° ENE 21:01:01 31° ESE
USA 234 3.2 20:58:34 10° NE 21:05:10 88° SE 21:11:43 10° SW
ALOS 2 3.8 21:09:12 24° ESE 21:10:51 32° ENE 21:14:46 10° N
USA 281 3.3 21:09:22 26° SE 21:13:12 70° ENE 21:19:46 10° NNW
Cosmos 2074 Rocket 4.4 21:14:12 31° SE 21:16:51 49° E 21:22:49 10° NNE
Cosmos 405 Rocket 2.7 21:13:09 10° NNW 21:16:56 70° W 21:17:44 50° SSW
BREEZE-M DEB (TANK) 4.3 21:15:58 10° WNW 21:19:16 62° NNE 21:29:28 10° E
H-2A R/B 4.2 21:18:40 10° ENE 21:20:04 11° E 21:20:15 11° E
PSLV R/B 3.7 21:17:18 10° NNE 21:21:18 85° ESE 21:22:19 49° S
Cosmos 2181 Rocket 3.9 21:15:22 10° N 21:21:33 82° E 21:24:25 34° SSE
Aureole 1 Rocket 3.6 21:23:49 36° ESE 21:24:17 37° E 21:28:46 10° NE
BlueWalker 3 4.2 21:22:38 10° NW 21:25:47 25° N 21:28:56 10° ENE
Cosmos 990 Rocket 3.9 21:24:51 38° S 21:26:49 73° ESE 21:31:57 10° NNE
CZ-2C R/B 4.0 21:24:28 10° N 21:28:50 59° WNW 21:30:58 29° SW
MINOTAUR 4 R/B 3.7 21:27:28 10° N 21:30:12 68° NW 21:30:12 68° NW
Cosmos 2221 Rocket 3.5 21:30:14 48° S 21:31:26 79° E 21:35:52 10° N
Cosmos 1328 4.0 21:34:21 47° ESE 21:34:42 49° E 21:38:27 10° NNE
Okean 1 Rocket 3.2 21:31:32 10° N 21:35:54 66° E 21:36:59 47° SE
Cosmos 2098 Rocket 4.2 21:30:35 10° NNW 21:36:52 58° W 21:39:37 31° SSW
Sich 1 Rocket 3.5 21:34:17 10° NNW 21:38:40 75° W 21:39:46 49° SSW
Cosmos 1025 Rocket 3.2 21:47:07 47° SE 21:47:48 53° E 21:51:59 10° NNE
SL-16 R/B 2.1 21:42:08 10° NNW 21:47:52 82° WSW 21:50:00 40° SSE
Cosmos 372 Rocket 4.5 21:46:47 38° SE 21:47:56 44° ESE 21:52:52 10° NNE
Cosmos 2237 Rocket 3.6 21:43:37 10° NW 21:48:11 26° WSW 21:50:16 21° SW
NOSS 3-2 (A) 3.1 21:48:36 26° SW 21:51:39 85° NW 21:57:49 10° NE
Cosmos 2227 Rocket 3.0 21:47:45 14° SW 21:52:26 48° WNW 21:57:57 10° NNE
Cosmos 1943 4.2 21:47:57 10° NNW 21:53:13 39° NE 21:56:41 19° ESE
Cosmos 1975 Rocket 4.1 21:54:33 31° ESE 21:55:13 32° E 21:59:11 10° NNE
Nadezhda 3 Rocket 4.0 21:49:53 10° N 21:56:08 72° E 21:58:44 36° SSE
Cosmos 2082 3.6 21:54:18 40° S 21:56:20 73° ESE 22:01:57 10° NNE
H-2A R/B 2.8 21:56:06 46° SW 21:56:54 54° W 22:01:01 10° NNW
SL-12 R/B(2) 4.4 21:52:02 11° SW 21:59:50 80° NW 22:09:42 10° NE
NOSS 3-2 (C) 3.3 22:02:06 44° S 22:03:27 56° ESE 22:09:21 10° NE
Cosmos 1455 Rocket 3.4 21:59:44 10° N 22:04:08 55° ENE 22:05:09 44° SE
ARIANE 5 R/B 4.1 22:03:45 23° WSW 22:04:49 25° W 22:08:28 10° NW
Cosmos 1825 3.1 22:06:40 32° W 22:07:07 34° WNW 22:10:16 10° N
Cosmos 2184 Rocket 4.2 22:08:10 33° SSW 22:11:12 70° W 22:17:36 10° N
Spot 4 4.4 22:10:06 38° SW 22:11:20 47° W 22:16:00 10° NNW
Cosmos 2297 Rocket 4.4 22:07:39 10° W 22:11:57 22° NW 22:16:17 10° N
Cosmos 2327 Rocket 4.5 22:18:41 39° SSE 22:21:01 73° E 22:27:09 10° NNE
Cosmos 2219 4.0 22:23:58 20° WSW 22:27:37 46° WNW 22:33:02 10° NNE
Cosmos 1461 3.7 22:26:32 28° W 22:28:06 42° NW 22:31:49 10° NNE
SL-8 Rocket 4.4 22:26:19 33° SE 22:28:45 51° E 22:34:44 10° NNE
CENTAUR R/B 3.7 22:24:12 10° WSW 22:29:46 41° NW 22:36:37 10° NNE
Cosmos 2263 Rocket 2.5 22:27:07 28° SW 22:29:59 60° WNW 22:35:30 10° NNE
Cosmos 2154 Rocket 4.3 22:27:17 32° SSW 22:30:11 62° WNW 22:36:27 10° N
Orbus 7S? 3.9 22:28:03 10° NW 22:30:35 39° NE 22:31:37 28° E
Cosmos 1818 3.8 22:26:18 10° NW 22:31:38 54° WSW 22:32:53 44° SSW
Cosmos 1937 Rocket 3.4 22:31:10 45° SSW 22:32:52 89° WNW 22:38:07 10° NNE
Cosmos 2227 4.3 22:38:22 42° S 22:40:10 64° ESE 22:45:53 10° NNE
PSLV R/B 3.7 22:36:23 10° N 22:40:31 60° WNW 22:41:24 47° WSW
Cosmos 962 Rocket 4.5 22:38:26 39° S 22:41:01 83° E 22:47:20 10° N
Cosmos 1844 Rocket 3.3 22:44:32 34° SE 22:46:00 41° ESE 22:51:11 10° NE
ALOS 2 3.9 22:46:36 26° WSW 22:47:11 27° W 22:50:56 10° NW
USA 234 4.4 22:41:45 10° NE 22:47:49 42° NNW 22:53:52 10° W
Cosmos 923 Rocket 4.2 22:43:27 10° NNW 22:48:34 55° WSW 22:49:49 44° SSW
Cosmos 1898 Rocket 4.2 22:48:08 28° WSW 22:50:29 47° WNW 22:55:30 10° NNE
H-2A R/B 2.0 22:52:07 10° N 22:56:16 67° WNW 22:57:02 53° SW
USA 281 4.5 22:56:14 21° SW 22:58:12 25° W 23:03:26 10° NW
Meteor 1-11 4.3 23:01:17 39° SSW 23:03:33 75° WNW 23:09:22 10° N
BlueWalker 3 2.9 23:00:56 10° NW 23:04:34 47° NNE 23:08:11 10° E
Cosmos 921 Rocket 3.6 23:01:02 10° N 23:05:07 47° ENE 23:06:40 31° ESE
Cosmos 864 Rocket 4.5 23:03:50 37° S 23:06:33 84° E 23:12:54 10° N
USA 238 DEB 3.5 23:08:11 34° SW 23:11:09 88° SE 23:17:55 10° NE
USA 238 3.5 23:08:14 34° SW 23:11:11 87° ESE 23:17:57 10° NE
Cosmos 1437 Rocket 3.3 23:10:54 40° ESE 23:11:21 42° E 23:14:52 10° NNE
Cosmos 1869 3.3 23:11:54 10° NNW 23:15:31 54° W 23:15:40 53° WSW
Cosmos 1544 Rocket 3.6 23:12:58 10° NNW 23:17:22 68° W 23:18:17 52° SSW
Cosmos 1867 3.7 23:19:03 31° SW 23:21:38 69° NW 23:27:08 10° NNE
Cosmos 1680 Rocket 4.3 23:22:34 10° NW 23:27:14 34° WSW 23:28:15 31° SW
Cosmos 724 4.3 23:22:47 10° NNW 23:28:38 83° NE 23:33:01 19° SE
SL-16 R/B 4.2 23:28:50 10° WNW 23:31:00 12° W 23:31:50 12° WSW
Cosmos 2341 Rocket 4.4 23:28:45 30° SW 23:31:37 53° WNW 23:37:44 10° N
Cosmos 1821 Rocket 4.0 23:32:20 33° S 23:35:15 80° E 23:41:29 10° N
Cosmos 1606 3.8 23:32:38 10° NNW 23:35:43 28° W 23:35:43 28° W
Cosmos 1943 3.9 23:32:07 10° NW 23:37:10 35° WSW 23:38:27 31° SW
Cosmos 1603 3.9 23:31:56 10° NNW 23:37:33 56° WSW 23:39:41 36° SSW
Cosmos 494 Rocket 4.0 23:37:15 10° NNW 23:42:27 65° WSW 23:44:29 36° S
Helios 1A Rocket 2.6 23:42:09 48° SSE 23:43:09 85° ENE 23:46:58 10° NNW
Lacrosse 5 3.9 23:43:42 12° SE 23:44:58 13° ESE 23:47:21 10° E
Meteor 2-13 Rocket 4.4 23:39:08 10° N 23:45:17 84° W 23:48:34 29° S
Cosmos 2366 rocket 4.5 23:45:43 28° SW 23:48:44 48° WNW 23:54:44 10° N
COBE Rocket 4.2 23:44:48 10° NNE 23:49:57 66° E 23:52:20 31° S
Cosmos 1606 Rocket 3.6 23:47:48 10° N 23:52:15 76° E 23:54:10 33° SSE
Timation 2 Rocket 4.2 23:49:27 30° S 23:52:48 65° ESE 23:59:02 10° NNE
Cosmos 2228 3.8 23:51:10 10° NNW 23:55:05 35° W 23:55:54 32° WSW
